Regional Weather Roundup
Issued by NWS

Home | Current Version | Previous Version | Text Only | Print | Product List | Glossary On
Versions: 1 2 3 4 5 6 7 8 9 10 11 12 13 14 15 16 17 18 19 20 21 22 23 24 25 26 27 28 29 30 31 32 33 34 35 36 37 38 39 40 41 42 43 44 45 46 47 48 49 50
000
ASUS43 KDTX 242301
RWRMI
MICHIGAN HOURLY REGIONAL WEATHER ROUNDUP
NATIONAL WEATHER SERVICE DETROIT/PONTIAC MI
700 PM EDT TUE APR 24 2018

NOTE: "FAIR" INDICATES FEW OR NO CLOUDS BELOW 12,000 FEET WITH NO
SIGNIFICANT WEATHER AND/OR OBSTRUCTION TO VISIBILITY.

MIZ047>049-052>055-059>063-066>070-074>076-081>083-250000-
SOUTHEAST LOWER MICHIGAN

CITY           SKY/WX    TMP DP  RH WIND       PRES   REMARKS
ADRIAN         CLOUDY    51  50  96 E10       29.98F
ALMA           CLOUDY    57  52  81 N8G21     30.00F
ANN ARBOR      CLOUDY    53  52  96 NE5       29.98F FOG
BAD AXE        MIX PCPN  61  40  45 SE10G17   30.01S
CARO           LGT RAIN  58  46  64 SE8       29.99S
DETROIT CITY   CLOUDY    51  48  89 E8        30.01S FOG
DETROIT        LGT RAIN  53  49  86 E8        29.99F FOG
FLINT          CLOUDY    58  48  69 SE10      29.99S
GROSSE ILE     DRIZZLE   51  49  95 E6        29.98F
HILLSDALE      CLOUDY    50  48  93 E7        29.97F FOG
HOWELL         RAIN      54  52  93 SE6       29.99F

CITY           SKY/WX    TMP DP  RH WIND       PRES   REMARKS
JACKSON        CLOUDY    53  51  93 E6        29.99S FOG
LAMBERTVILLE   DRIZZLE   51  48  90 E6        29.98S
LANSING        CLOUDY    55  54  96 N6        30.00S FOG
LAPEER         CLOUDY    55  46  69 S6        30.01S
MASON          CLOUDY    57  48  73 SE7       29.99S
MONROE         LGT RAIN  50  49  93 E7        29.98F
MT. CLEMENS    LGT RAIN  51  51 100 E6        30.00F
PONTIAC        LGT RAIN  53  48  83 E10       29.99F
PORT HOPE        N/A     47  42  83 SE6       30.02S
PORT HURON     LGT RAIN  52  48  87 SE7       30.02F
TRI CITIES     CLOUDY    55  47  74 NE13      30.00F
MIDLAND        CLOUDY    56  50  82 N7        30.00S
TROY           DRIZZLE   53  50  89 E8        30.02F
SAGINAW HB     DRIZZLE   54  46  76 N9        29.99F
$$
MIZ043>046-050>051-056>058-064>065-071>073-077>080-250000-
SOUTHWEST LOWER MICHIGAN

CITY           SKY/WX    TMP DP  RH WIND       PRES   REMARKS
BATTLE CREEK   CLOUDY    58  49  72 E6        29.98S
BENTON HARBOR  CLOUDY    52  45  77 N9        29.98F
BIG RAPIDS     LGT RAIN  53  49  87 E3        30.00F
COLDWATER      LGT RAIN  54  53  97 E6        29.97F
HOLLAND        CLOUDY    59  48  67 W3        29.98F
GRAND RAPIDS   LGT RAIN  57  52  83 N10       29.99S
IONIA          DRIZZLE   58  50  76 N6        29.99S
KALAMAZOO      CLOUDY    60  48  64 NE5       29.98S
LUDINGTON      FAIR      54  47  77 N12G17    30.02S
MARSHALL       CLOUDY    55  53  94 E5        29.98S
MOUNT PLEASANT LGT RAIN  56  53  89 N7        30.00F
MUSKEGON       CLOUDY    61  50  67 N8        30.00S
SOUTH HAVEN    CLOUDY    54  47  77 N7        29.98F
$$
MIZ016>042-250000-
NORTHERN LOWER MICHIGAN

CITY           SKY/WX    TMP DP  RH WIND       PRES   REMARKS
ALPENA         LGT RAIN  54  53  97 CALM      30.04F
BEAVER ISLAND  CLOUDY    53  27  37 N9G16     30.07S
BELLAIRE       CLOUDY    57  29  34 N6        30.03R
CADILLAC       CLOUDY    55  49  83 E5        30.02S
CHARLEVOIX     PTSUNNY   46  32  57 N6        30.08S
FRANKFORT      PTSUNNY   52  33  47 N10G18    30.03F
GAYLORD        LGT RAIN  53  48  83 W3        30.03S
HARBOR SPRINGS FAIR      44  31  61 SW5       30.03F
HOUGHTON LAKE  CLOUDY    53  51  93 E5        30.03F
MANISTEE       PTSUNNY   56  38  50 NW6       30.02F
OSCODA         LGT RAIN  54  50  86 CALM      30.02F
PELLSTON       FAIR      56  32  40 NW13      30.04R
ROGERS CITY    RAIN      54  50  87 S3        30.03F
TRAVERSE CITY  CLOUDY    53  37  54 NE3       30.03R
$$
MIZ007>008-015-250000-
EASTERN UPPER MICHIGAN

CITY           SKY/WX    TMP DP  RH WIND       PRES   REMARKS
KINROSS        CLOUDY    44  31  60 NW13      30.06R
MACKINAC ISLAN PTSUNNY   51  32  47 N15G22    30.05R
NEWBERRY       CLOUDY    43  28  56 N9        30.09S
S. S. MARIE    CLOUDY    46  29  51 NW12      30.05S
MUNISING         N/A     38  32  79 NW7       30.14R WCI  33
$$
MIZ004>006-011>014-085-250000-
CENTRAL UPPER MICHIGAN

CITY           SKY/WX    TMP DP  RH WIND       PRES   REMARKS
MANISTIQUE     CLOUDY    48  29  48 N10       30.08S
ESCANABA       FAIR      51  28  41 N13G22    30.10R
MENOMINEE      PTSUNNY   52  31  44 NE12G21   30.08R
SAWYER-GWINN   CLOUDY    43  27  52 N12       30.14R
$$
MIZ001>003-009>011-084-250000-
WESTERN UPPER MICHIGAN

CITY           SKY/WX    TMP DP  RH WIND       PRES   REMARKS
IRON MOUNTAIN  CLOUDY    55  28  35 NE9       30.08R
HOUGHTON       FAIR      45  32  60 W9        30.15S
COPPER HARBOR    N/A     43  30  60 N7        30.15R
IRONWOOD       FAIR      42  37  82 E3        30.18F
$$

ABBREVIATIONS USED IN REMARKS
   TC - TEMPERATURE IN CELSIUS
  WCI - WIND CHILL INDEX
   HX - HEAT INDEX
  VSB - VISIBILITY





USA.gov is the U.S. government's official web portal to all federal, state and local government web resources and services.